AO-07 1 07530U 74089B 19269.39968249 -.00000029 00000-0 10184-3 0 9999 2 07530 101.7563 236.0793 0012178 152.9949 6.0008 12.53640076 53015 UO-11 1 14781U 84021B 19269.14783785 .00000057 00000-0 13063-4 0 9995 2 14781 97.6068 289.1368 0008450 3.7177 356.4098 14.83107904913508 LO-19 1 20442U 90005G 19268.89323410 -.00000023 00000-0 78585-5 0 9996 2 20442 098.6553 210.7580 0011042 212.7749 147.2750 14.32933231550527 HUBBLE 1 20580U 90037B 19268.48708029 .00000428 00000-0 15114-4 0 9998 2 20580 28.4693 278.6389 0002943 106.5104 28.7762 15.09270278415831 MET-2/21 1 22782U 93055A 19268.88655885 .00000036 00000-0 19460-4 0 9995 2 22782 82.5458 84.3491 0021066 259.5492 208.8626 13.83820506316586 AO-27 1 22825U 93061C 19268.92236317 -.00000005 00000-0 15930-4 0 9995 2 22825 98.9114 259.8596 0009456 72.2355 287.9858 14.30066947356130 IO-26 1 22826U 93061D 19268.97085466 .00000001 00000-0 18284-4 0 9998 2 22826 98.9054 259.8882 0009905 61.8726 298.3456 14.30401002356345 FO-29 1 24278U 96046B 19269.59635231 -.00000017 00000-0 20636-4 0 9999 2 24278 98.5528 49.5141 0349994 341.1817 17.6649 13.53093483141311 NOAA-15 1 25338U 98030A 19269.47828987 .00000039 00000-0 34992-4 0 9994 2 25338 98.7428 290.5441 0009610 317.5954 42.4482 14.25932225111468 GO-32 1 25397U 98043D 19269.69939952 -.00000016 00000-0 12043-4 0 9991 2 25397 98.6947 208.6584 0002368 97.4702 262.6745 14.23671023102107 ISS 1 25544U 98067A 19269.80982806 -.00000054 00000-0 70930-5 0 9992 2 25544 51.6422 217.2853 0007523 88.2679 357.9145 15.50107018191022 NO-44 1 26931U 01043C 19269.68756125 -.00000010 00000-0 27801-4 0 9990 2 26931 67.0497 105.6416 0007428 270.2643 89.7607 14.30553276939277 SO-50 1 27607U 02058C 19269.71715464 -.00000011 00000-0 19365-4 0 9990 2 27607 64.5537 103.7794 0076352 237.1028 122.2712 14.75573472901799 CO-55 1 27844U 03031E 19268.99273289 .00000052 00000-0 42927-4 0 9992 2 27844 98.6855 275.7257 0010967 102.4342 257.8063 14.22195885842406 CO-57 1 27848U 03031J 19268.59094912 .00000039 00000-0 37730-4 0 9997 2 27848 98.6931 275.8504 0010775 114.0977 246.1329 14.21788776842199 RS-22 1 27939U 03042A 19269.71278855 .00000175 00000-0 39896-4 0 9991 2 27939 98.0542 43.6597 0014159 109.2514 251.0225 14.66805350855201 NOAA-18 1 28654U 05018A 19269.44756996 .00000071 00000-0 63481-4 0 9990 2 28654 99.0859 317.8631 0013335 255.8722 104.0968 14.12454233739592 CO-58 1 28895U 05043F 19268.90658751 .00000089 00000-0 26013-4 0 9994 2 28895 97.9735 48.3175 0017627 42.3044 317.9515 14.63692861741999 Falconsat-3 1 30776U 07006E 19268.20280601 .00002473 00000-0 69149-4 0 9990 2 30776 35.4346 181.8227 0003788 279.4799 80.5499 15.36515803695846 CO-65 1 32785U 08021C 19268.85135368 .00000171 00000-0 24087-4 0 9995 2 32785 097.5550 263.9138 0011674 297.7722 062.2312 14.88347595618369 AAUSAT2 1 32788U 08021F 19269.32620825 .00000651 00000-0 64769-4 0 9992 2 32788 97.4964 280.6467 0010628 219.6579 140.3865 14.94803107619806 DO-64 1 32789U 08021G 19269.67880233 .00001491 00000-0 10309-3 0 9995 2 32789 97.4553 316.2855 0013366 138.5273 221.6972 15.07126984622026 CO-66 1 32791U 08021J 19268.97100524 .00000250 00000-0 30764-4 0 9998 2 32791 97.5312 270.0938 0011783 267.2785 92.7085 14.90873131618909 RS-30 1 32953U 08025A 19269.68598644 .00000020 00000-0 75656-4 0 9999 2 32953 82.4987 82.5745 0018673 272.1179 87.7759 12.43091154514730 PRISM 1 33493U 09002B 19269.67745989 .00001060 00000-0 98198-4 0 9991 2 33493 98.1209 194.4224 0014204 206.9600 153.0884 14.96738878580107 NOAA-19 1 33591U 09005A 19269.50568160 .00000030 00000-0 41540-4 0 9994 2 33591 99.1872 263.0760 0014972 98.0189 262.2681 14.12377737548007 TISAT-1 1 36799U 10035E 19269.39917246 .00000329 00000-0 39243-4 0 9990 2 36799 98.1686 64.9382 0013469 116.7253 243.5344 14.91160836499628 JUGNU 1 37839U 11058B 19268.84436130 .00000296 00000-0 15998-4 0 9993 2 37839 19.9612 93.4984 0018922 340.2398 119.8744 14.12659079411293 SRMSAT 1 37841U 11058D 19269.04336132 .00000299 00000-0 19298-4 0 9990 2 37841 19.9712 151.1236 0011883 207.5735 290.7155 14.10639490410734 AO-71 1 37854U 11061E 19268.78542051 .00000590 00000-0 37957-4 0 9993 2 37854 101.7008 217.9565 0160353 131.3979 230.1145 15.06581987431466 HRBE 1 37855U 11061F 19268.88952697 .00000639 00000-0 39813-4 0 9993 2 37855 101.7127 215.4070 0173054 142.6397 218.6996 15.05590668431701 ALMASAT-1 1 38078U 12006B 19269.70443743 .00042324 45288-5 20821-3 0 9997 2 38078 69.4262 339.0847 0136990 105.8197 40.8589 15.69805477413149 HORYU-2 1 38340U 12025D 19268.90768236 .00000125 00000-0 26292-4 0 9998 2 38340 098.3206 310.4310 0011948 162.1925 197.9704 14.75751034385380 RS-40 1 38735U 12041C 19269.71047640 .00000039 00000-0 21310-3 0 9992 2 38735 82.4791 165.7429 0017995 19.5780 340.5986 12.42579284324978 BEESAT-3 1 39135U 13015F 19269.64866764 .00000797 00000-0 48923-4 0 9998 2 39135 64.8679 76.2694 0034357 296.7127 63.0484 15.17610829355416 BEESAT-2 1 39136U 13015G 19268.86675235 .00000639 00000-0 41975-4 0 9998 2 39136 64.8685 82.8985 0025991 302.4521 57.4092 15.17028747355219 ZACUBE-1 1 39417U 13066B 19268.81191623 .00000190 00000-0 30038-4 0 9995 2 39417 97.5628 276.7439 0060383 69.5933 291.1752 14.81150592315716 TRITON-1 1 39427U 13066M 19269.45725536 .00000159 00000-0 33483-4 0 9995 2 39427 97.6879 240.7303 0113042 205.4227 154.1393 14.67881545312972 GOMX-1 1 39430U 13066Q 19269.73268113 .00000143 00000-0 35309-4 0 9995 2 39430 97.7565 219.7423 0150265 299.2852 59.3402 14.59288021311192 LO-74 1 39440U 13066AA 19268.93980048 .00000178 00000-0 31472-4 0 9990 2 39440 097.6084 261.5465 0081492 121.9652 238.9514 14.75887969313413 AO-73 1 39444U 13066AE 19268.82506499 .00000228 00000-0 34232-4 0 9999 2 39444 97.5603 278.7959 0059444 63.1371 297.5903 14.81976793314615 SPROUT 1 39770U 14029E 19269.73452813 .00000649 00000-0 77814-4 0 9992 2 39770 97.8879 12.4038 0009758 114.1117 246.1165 14.87432268289705 DUCHIFAT-1 1 40021U 14033M 19268.75610968 .00000348 00000-0 41287-4 0 9997 2 40021 97.9233 193.6770 0014373 83.5752 276.7102 14.90686062286309 NANOSATCBR1 1 40024U 14033Q 19268.83533387 .00000184 00000-0 25000-4 0 9991 2 40024 97.9118 190.9220 0013702 86.8785 273.4000 14.89892163286200 EO-79 1 40025U 14033R 19269.49538102 .00000196 00000-0 26816-4 0 9994 2 40025 97.9031 189.0075 0013932 90.6995 269.5818 14.88985494286171 DTUSAT-2 1 40030U 14033W 19269.31719474 .00000228 00000-0 30478-4 0 9999 2 40030 97.8940 186.8193 0013380 87.2795 272.9953 14.88573884286071 EO-80 1 40032U 14033Y 19268.99044304 .00000217 00000-0 29376-4 0 9990 2 40032 97.8948 186.4948 0013315 88.9390 271.3352 14.88517732286012 ANTELSAT 1 40034U 14033AA 19269.62261205 .00000181 00000-0 34115-4 0 9991 2 40034 97.7464 132.4861 0059629 132.9868 227.6361 14.74136682283397 VELOX-1 1 40057U 14034E 19269.75823893 .00000232 00000-0 40012-4 0 9998 2 40057 98.2471 35.0722 0009698 273.3896 86.6208 14.77711247282540 DAURIA DX 1 1 40071U 14037C 19269.73097526 .00000054 00000-0 14530-4 0 9999 2 40071 98.4393 68.7973 0007318 266.5091 93.5284 14.81292112282068 UKUBE-1 1 40074U 14037F 19269.68533560 .00000175 00000-0 28226-4 0 9990 2 40074 98.4476 77.3840 0003000 249.9744 110.1140 14.84099138282485 HODOYOSHI-1 1 40299U 14070B 19269.75484910 .00000390 00000-0 19258-4 0 9992 2 40299 97.3434 347.4089 0014264 54.3622 61.7676 15.23449885271507 CHUBUSAT-1 1 40300U 14070C 19269.78675448 .00000548 00000-0 26742-4 0 9997 2 40300 97.3191 341.4055 0021293 64.4858 51.5659 15.22177830271246 QSAT-EOS 1 40301U 14070D 19269.77290193 .00001257 00000-0 51016-4 0 9997 2 40301 97.3214 344.9705 0027037 47.2186 69.7368 15.26143918271554 FIREBIRD FU3 1 40377U 15003B 19268.89615897 .00001513 00000-0 62731-4 0 9992 2 40377 099.1198 269.5010 0127398 119.7379 241.6597 15.19040219256975 FIREBIRD FU4 1 40378U 15003C 19269.67326960 .00001720 00000-0 70585-4 0 9996 2 40378 99.1203 270.5202 0127629 117.0485 244.3836 15.19052920257108 GRIFEX 1 40379U 15003D 19269.62046975 .00001051 00000-0 48497-4 0 9991 2 40379 99.1211 263.9070 0135547 137.2222 223.9651 15.15667365256724 NO-84 1 40654U 15025D 19269.49306558 .00009346 00000 0 12978-3 0 7314 2 40654 54.9891 77.0619 0131015 221.4711 137.6281 15.48440763127905 NO-83 1 40655U 15025E 19269.34760810 .00120115 16276-4 34087-3 0 9114 2 40655 54.9608 296.6927 0035246 316.8589 42.9500 15.92123880129523 DEORBITSAIL 1 40719U 15032E 19269.19079521 .00000320 00000-0 52806-4 0 9993 2 40719 97.8952 158.9316 0016418 350.0567 10.0316 14.76796981226944 NUDT-PHONESAT 1 40900U 15049B 19269.71972604 .00001430 00000-0 63623-4 0 9997 2 40900 97.4387 278.0888 0012280 187.0061 299.7348 15.23059837222887 XW-2A 1 40903U 15049E 19269.72501515 .00001409 00000-0 34863-4 0 9990 2 40903 97.3292 313.0150 0014485 137.5372 2.8609 15.42111065225665 XW-2C 1 40906U 15049H 19269.74410130 .00000350 00000-0 21812-4 0 9991 2 40906 97.4716 270.1849 0013528 208.1954 206.8486 15.15756891222158 XW-2D 1 40907U 15049J 19269.71505227 .00000445 00000-0 26621-4 0 9999 2 40907 97.4696 269.8368 0013061 204.9804 242.2831 15.15952424222166 LILACSAT-2 1 40908U 15049K 19269.74018041 .00000484 00000-0 30337-4 0 9998 2 40908 97.4834 268.5807 0014615 213.5632 265.7310 15.13853547221947 XW-2E 1 40909U 15049L 19269.71635867 .00000690 00000-0 37324-4 0 9999 2 40909 97.4623 272.8325 0012810 198.1743 250.2991 15.17914853222366 XW-2F 1 40910U 15049M 19269.78622977 .00000624 00000-0 34491-4 0 9995 2 40910 97.4661 272.0546 0014219 195.8911 289.1789 15.17427418222196 XW-2B 1 40911U 15049N 19269.75745753 .00000358 00000-0 22155-4 0 9999 2 40911 97.4716 270.5449 0012908 205.6501 269.4097 15.15879866222066 DCBB 1 40912U 15049P 19269.72952521 .00000771 00000-0 39203-4 0 9991 2 40912 97.4518 275.7970 0014740 177.0467 302.6112 15.19755237222508 TW-1C 1 40926U 15051B 19269.68872940 .00010806 00000-0 14829-3 0 9996 2 40926 97.1265 315.7900 0007860 14.4508 104.9758 15.57479040225714 TW-1A 1 40928U 15051D 19269.69078291 .00002482 00000-0 61579-4 0 9992 2 40928 97.1394 298.7695 0012713 72.4819 23.2970 15.41229470224577 IO-86 1 40931U 15052B 19267.89441695 .00000771 00000-0 18391-4 0 9992 2 40931 5.9959 76.3438 0013006 104.0367 256.1227 14.76615036215808 LQSat 1 40958U 15057A 19269.14308737 .00000004 00000-0 82265-5 0 9996 2 40958 97.8900 335.6086 0016775 283.0670 76.8666 14.73089504213448 AO-85 1 40967U 15058D 19269.39649054 .00000039 00000 0 23187-4 0 8199 2 40967 64.7764 215.6098 0188096 170.3671 190.1126 14.75994124122450 ATHENOXAT-1 1 41168U 15077C 19269.14289671 .00001868 00000-0 63350-4 0 9999 2 41168 14.9878 207.1660 0011435 36.7090 323.4013 15.13782456209076 ChubuSat-2 1 41338U 16012B 19269.09836254 .00000320 00000-0 18160-4 0 9998 2 41338 31.0026 233.0164 0013724 7.7063 352.3781 15.00182511197855 ChubuSat-3 1 41339U 16012C 19269.32240750 .00000302 00000-0 16752-4 0 9990 2 41339 31.0103 229.5566 0013593 17.0998 343.0094 15.00355854197882 Horyu-4 1 41340U 16012D 19269.16994747 .00000503 00000-0 31444-4 0 9994 2 41340 31.0043 220.9729 0013838 36.0845 324.0723 15.01315803197976 OUFTI-1 1 41458U 16025C 19268.79360395 .00001127 00000-0 60894-4 0 9996 2 41458 98.1008 0.6764 0166383 24.3469 336.5502 15.06035820187480 e-st@r-II 1 41459U 16025D 19269.76439485 .00000725 00000-0 41012-4 0 9996 2 41459 98.1017 1.3037 0167974 22.5876 338.2608 15.05663781187603 AAUSAT4 1 41460U 16025E 19269.74578484 .00000960 00000-0 51782-4 0 9995 2 41460 98.0935 2.7769 0157396 14.1398 346.4160 15.07624261187744 LO-87 1 41557U 16033B 19269.69629843 .00001132 00000-0 44915-4 0 9993 2 41557 97.4156 356.6127 0012381 308.8242 51.1891 15.27389135185359 NuSat2 1 41558U 16033C 19269.67150807 .00001189 00000-0 44468-4 0 9996 2 41558 97.4187 357.9608 0011437 309.2324 50.7900 15.29301508185412 Lapan A3 1 41603U 16040E 19269.73777929 .00000078 00000-0 67585-5 0 9994 2 41603 97.3511 325.9277 0014961 53.3274 94.6859 15.19744128180936 Swayam 1 41607U 16040J 19268.85075414 .00001203 00000-0 53236-4 0 9998 2 41607 097.3561 329.0094 0014558 048.0153 312.2322 15.23495401180976 Pratham 1 41783U 16059A 19269.11188744 .00000029 00000-0 14750-4 0 9997 2 41783 98.0576 326.4468 0034830 72.3028 288.1972 14.63010139160083 AlSat 1N 1 41789U 16059G 19269.69900673 .00000052 00000-0 18924-4 0 9992 2 41789 98.0602 329.2338 0029447 59.7456 300.6662 14.64263192160286 ScatSat 1 41790U 16059H 19269.71687332 -.00001026 00000-0 -24904-3 0 9999 2 41790 98.1995 312.3423 0006231 26.3043 333.8449 14.50886333158832 TY-1 1 41844U 16066D 19269.74099723 .00000575 00000-0 26324-4 0 9996 2 41844 97.4069 275.9407 0014406 190.2774 256.2682 15.24399848159938 Pegasus-1 1 41846U 16066F 19269.05955737 .00000150 00000-0 34142-4 0 9994 2 41846 98.7023 310.7945 0366397 303.0810 53.5690 14.37617412150833 CAS-2T 1 41847U 16066G 19268.76182585 .00000019 00000-0 14221-4 0 9995 2 41847 98.6964 311.0191 0364890 300.2729 56.2815 14.38006294151233 EO-88 1 42017U 17008BX 19269.65556878 .00001365 00000-0 56323-4 0 9995 2 42017 97.3945 335.6836 0006654 162.6363 197.5104 15.25731519145168 nSIGHT1 1 42726U 98067MF 19269.26093609 .00026937 00000-0 17980-3 0 9998 2 42726 51.6350 158.1317 0004775 183.6491 176.4474 15.75131231133496 CAS-4B 1 42759U 17034B 19269.79016470 .00000115 00000-0 20557-4 0 9993 2 42759 43.0194 40.9931 0010611 167.3581 343.2035 15.09637437125964 CAS-4A 1 42761U 17034D 19269.74581884 .00000054 00000-0 16771-4 0 9992 2 42761 43.0186 40.7105 0011155 168.6921 329.0848 15.09714255125952 UCLSat 1 42765U 17036A 19269.15361273 .00000961 00000-0 43930-4 0 9995 2 42765 97.3412 324.9917 0010037 235.1562 124.8731 15.22900847125600 NIUSat 1 42766U 17036B 19269.16293832 .00000752 00000-0 36656-4 0 9997 2 42766 97.3407 323.1750 0014397 227.2688 132.7337 15.21236334125359 LituanicaSAT 2 1 42768U 17036D 19269.38869087 .00001833 00000-0 80603-4 0 9996 2 42768 97.3451 324.8862 0013856 224.7119 135.3002 15.23062227125484 Aalto 1 1 42775U 17036L 19269.10931535 .00000611 00000-0 30180-4 0 9990 2 42775 97.3393 323.4633 0012716 226.7477 133.2698 15.21443969125326 URSA MAIOR 1 42776U 17036M 19269.38997488 .00000762 00000-0 36781-4 0 9990 2 42776 97.3404 323.9178 0012565 225.4936 134.5274 15.21586944125377 Max Valier Sat 1 42778U 17036P 19269.19349483 .00000806 00000-0 38135-4 0 9991 2 42778 97.3446 324.6207 0011055 229.5934 130.4338 15.22143935125378 Pegasus 1 42784U 17036V 19269.26024963 .00000992 00000-0 45561-4 0 9996 2 42784 97.3415 324.8839 0010601 235.6219 124.4015 15.22643296125419 NUDATSat 1 42787U 17036Y 19269.71864722 .00001152 00000-0 50921-4 0 9999 2 42787 97.3451 326.1832 0009621 238.6556 121.3740 15.23678343125375 SUCHAI 1 1 42788U 17036Z 19268.71389861 .00001016 00000-0 46011-4 0 9999 2 42788 97.3421 324.7180 0010151 236.4600 123.5668 15.23083538125424 SKCUBE 1 42789U 17036AA 19268.73647474 .00000932 00000-0 42581-4 0 9993 2 42789 097.3418 324.6627 0010016 236.5983 123.4296 15.22972187125344 VZLUSAT 1 1 42790U 17036AB 19268.72064974 .00001298 00000-0 56984-4 0 9990 2 42790 097.3435 325.2046 0009613 234.9182 125.1155 15.23669545125379 VENTA 1 1 42791U 17036AC 19268.70983914 .00000909 00000-0 41597-4 0 9995 2 42791 097.3416 324.6876 0009666 237.0144 123.0164 15.22981649125337 Robusta 1B 1 42792U 17036AD 19269.64174298 .00001157 00000-0 51882-4 0 9991 2 42792 97.3418 325.7212 0009651 233.4109 126.6241 15.23150222125501 D-SAT 1 42794U 17036AF 19269.59367477 .00000361 00000-0 36549-4 0 9999 2 42794 97.5302 309.8522 0126876 167.9715 192.4584 14.91136522123226 TechnoSat 1 42829U 17042E 19269.67483232 .00000027 00000-0 80455-5 0 9997 2 42829 97.5498 158.3275 0015811 87.3035 272.9993 14.91000946119839 TOMSK-TPU 120 1 42910U 98067MZ 19269.70659785 .00187854 25999-4 35463-3 0 9995 2 42910 51.6314 123.3555 0005620 218.4747 256.2031 16.00372292120945 TNS 0-2 1 42914U 98067ND 19269.08461437 .00243643 37086-4 39256-3 0 9998 2 42914 51.6270 126.2872 0005589 225.5779 134.4776 16.03003250120842 QIKCOM-1 1 42983U 98067NF 19269.63098396 .00003478 00000-0 49546-4 0 9991 2 42983 51.6390 198.3057 0004593 133.7891 226.3483 15.59395605108935 AO-91 1 43017U 17073E 19268.73954203 .00000244 00000-0 24732-4 0 9994 2 43017 97.7202 186.2227 0257487 195.5801 163.7380 14.78632346 99891 EcAMSat 1 43019U 98067NG 19269.62719427 .00006031 00000-0 73126-4 0 9995 2 43019 51.6403 191.5824 0005233 119.6679 240.4837 15.62189817191344 PICSAT 1 43132U 18004X 19268.73977200 .00001004 00000-0 44756-4 0 9992 2 43132 97.4801 336.3291 0008052 266.1817 93.8499 15.23745683 94589 AO-92 1 43137U 18004AC 19268.87086486 .00000811 00000-0 36878-4 0 9990 2 43137 097.4790 336.4128 0007620 267.9574 092.0790 15.23599189094606 TianYi 2 1 43155U 18008A 19269.73376027 .00000798 00000-0 51139-4 0 9994 2 43155 97.4795 340.1393 0017359 345.5472 129.9327 15.11247358 92932 Zhou Enlai 1 43156U 18008B 19269.75424130 .00000912 00000-0 58708-4 0 9993 2 43156 97.4838 340.0386 0014484 344.3815 169.0245 15.10757710 92904 TianYi 6 1 43158U 18008D 19269.75357466 .00000635 00000-0 42513-4 0 9991 2 43158 97.4782 339.4104 0012969 341.7404 134.4614 15.10335360 92869 S-Net G 1 43186U 18014G 19269.71030077 .00000117 00000-0 15340-4 0 9994 2 43186 97.7018 176.6714 0012188 37.4307 322.7761 14.96683318 90097 S-Net H 1 43187U 18014H 19269.30898517 .00000194 00000-0 22039-4 0 9999 2 43187 97.7016 176.2620 0012230 38.8449 321.3649 14.96683244 90030 S-Net J 1 43188U 18014J 19269.17509235 .00000229 00000-0 25145-4 0 9991 2 43188 97.7019 176.1501 0012231 39.3874 320.8234 14.96682808 90017 S-Net K 1 43189U 18014K 19269.10857984 .00000192 00000-0 21842-4 0 9991 2 43189 97.7016 176.0616 0012233 39.4490 320.7620 14.96682515 88557 FMN 1 1 43192U 18015A 19269.72107304 .00001539 00000-0 65311-4 0 9993 2 43192 97.4112 36.2890 0015084 305.8043 168.5241 15.24535549 91554 Shaonian Xing 1 43199U 18015H 19269.76452100 .00001065 00000-0 45499-4 0 9990 2 43199 97.3906 35.2442 0016110 316.8566 149.1698 15.24980533 91611 1KUNS-PF 1 43466U 98067NP 19269.22971565 .00025512 00000-0 21556-3 0 9994 2 43466 51.6357 188.0480 0001992 125.6045 234.5138 15.69585097 78539 UBAKUSAT 1 43467U 98067NQ 19269.36623223 .00013056 00000-0 13694-3 0 9999 2 43467 51.6363 194.2274 0003178 96.3250 263.8107 15.64750838 78473 Irazu 1 43468U 98067NR 19269.18687215 .00041495 00000-0 28697-3 0 9998 2 43468 51.6345 182.4515 0002372 133.7191 226.4004 15.74088870178592 EnduroSat One 1 43551U 98067NZ 19269.23877290 .00018367 00000-0 18570-3 0 9992 2 43551 51.6364 197.1268 0006021 152.4962 207.6353 15.65353347 68650 EQUISat 1 43552U 98067PA 19268.28751982 .00015394 00000-0 16764-3 0 9996 2 43552 51.6374 204.3107 0006341 148.1888 211.9490 15.63612719 68434 UiTMSat 1 1 43589U 98067PD 19268.27729643 .00016555 00000-0 17737-3 0 9995 2 43589 51.6346 204.9139 0005609 153.6418 206.4863 15.63968807 64161 Maya 1 1 43590U 98067PE 19269.03801102 .00016621 00000-0 17775-3 0 9999 2 43590 51.6353 200.9984 0005757 157.1371 202.9881 15.64011219 64210 Bhutan 1 1 43591U 98067PF 19269.08886317 .00016841 00000-0 17958-3 0 9993 2 43591 51.6367 200.6206 0005822 158.1515 201.9730 15.64074295 64220 SiriusSat 1 1 43595U 98067PG 19269.19441200 .00014850 00000-0 16513-3 0 9991 2 43595 51.6352 202.0458 0004301 119.5479 240.5944 15.63117522 63397 SiriusSat 2 1 43596U 98067PH 19269.17115521 .00015119 00000-0 16909-3 0 9992 2 43596 51.6363 202.6862 0004788 120.2044 239.9425 15.62950882 63389 Tanusha-3 1 43597U 98067PJ 19268.86279521 .00020438 00000-0 20787-3 0 9998 2 43597 051.6345 201.2965 0004375 130.9682 229.1692 15.65129337063379 SurfSat 1 43614U 18070B 19269.62259003 .00002677 00000-0 71997-4 0 9997 2 43614 93.0315 44.9206 0013140 282.5831 77.3953 15.37882397 57766 CP-7 DAVE 1 43615U 18070C 19268.91817866 .00002183 00000-0 58940-4 0 9991 2 43615 093.0318 044.6288 0013377 285.2575 074.7200 15.37783098057656 ELFIN-B 1 43616U 18070D 19269.07693882 .00003461 00000-0 90972-4 0 9991 2 43616 93.0278 44.6014 0014120 288.0789 71.8926 15.38558509 57699 ELFIN-A 1 43617U 18070E 19268.80743539 .00003440 00000-0 90273-4 0 9998 2 43617 93.0331 44.7823 0013297 285.6953 74.2833 15.38617467 57658 STARS-Me Mother 1 43640U 98067PQ 19269.35229331 .00009386 00000-0 12075-3 0 9996 2 43640 51.6362 206.8884 0006088 108.9656 251.1997 15.59826108 55273 CubeBel 1 1 43666U 18083E 19269.77734128 .00000606 00000-0 33372-4 0 9995 2 43666 97.5159 293.5551 0014505 195.5932 277.8547 15.17724828 50462 Changshagaoxin 1 43669U 18083H 19269.65984889 .00000662 00000-0 37001-4 0 9991 2 43669 97.5020 292.4410 0010727 185.2371 174.8752 15.16895420 50380 Ten-Koh 1 43677U 18084G 19269.13468694 .00000179 00000-0 24308-4 0 9994 2 43677 97.8606 22.2690 0015048 317.6875 42.3180 14.90194558 49424 PO-101 1 43678U 18084H 19269.76376599 .00000434 00000-0 48945-4 0 9993 2 43678 97.8599 23.6314 0009642 340.8410 19.2436 14.91575974 49568 IRVINE 01 1 43693U 18088D 19269.64781876 .00002087 00000-0 90175-4 0 9997 2 43693 85.0333 252.0848 0018161 177.7554 182.3773 15.21684982 48561 QO-100 1 43700U 18090A 19268.77601176 .00000126 00000-0 00000 0 0 9991 2 43700 0.0163 219.7633 0001494 350.4461 99.2747 1.00272358 3287 Reaktor Hello World 1 43743U 18096AA 19269.72604100 .00000832 00000-0 34341-4 0 9994 2 43743 97.4524 339.5821 0017874 348.2169 128.4701 15.26779065 45993 MinXSS-2 1 43758U 18099A 19269.18432831 -.00000081 00000-0 -20835-5 0 9995 2 43758 97.7375 340.0256 0015536 0.7953 359.3290 14.95463625 44308 AO-95 1 43770U 18099N 19269.17649340 -.00000131 00000-0 -67504-5 0 9993 2 43770 97.7376 339.7370 0014739 8.2492 351.8967 14.94814410 44286 RANGE-B 1 43772U 18099Q 19268.89022804 .00000600 00000-0 60130-4 0 9999 2 43772 97.7435 339.6913 0013922 357.0299 3.0837 14.94937663 44232 RANGE-A 1 43773U 18099R 19269.16721052 -.00000007 00000-0 46664-5 0 9991 2 43773 97.7324 339.5560 0013377 356.3700 3.7421 14.94838475 44271 MOVE-II 1 43780U 18099Y 19269.19036692 .00000211 00000-0 24449-4 0 9993 2 43780 97.7367 339.8213 0013527 6.2974 353.8415 14.95128721 44274 SNUSat 2 1 43782U 18099AA 19269.18630393 -.00000096 00000-0 -35316-5 0 9991 2 43782 97.7371 339.8618 0012572 356.0769 4.0351 14.95092952 44288 SnugLite 1 43784U 18099AC 19269.17087361 -.00000040 00000-0 16644-5 0 9994 2 43784 97.7339 339.7501 0015127 3.3537 356.7783 14.95181034 44295 ITASat 1 1 43786U 18099AE 19269.16878591 .00000012 00000-0 64000-5 0 9995 2 43786 97.7393 339.9562 0015216 2.3701 357.7589 14.95179564 44297 EAGLET 1 1 43790U 18099AJ 19269.16084701 .00000387 00000-0 40121-4 0 9994 2 43790 97.7383 340.0850 0013580 8.2513 351.8928 14.95552988 43995 ESEO 1 43792U 18099AL 19269.15924936 .00000252 00000-0 27945-4 0 9998 2 43792 97.7361 340.0157 0013371 5.5116 354.6250 14.95529519 44051 CSIM 1 43793U 18099AM 19269.26563926 .00000499 00000-0 49923-4 0 9992 2 43793 97.7327 340.0167 0012732 2.1310 357.9963 14.95768538 44046 Astrocast 0.1 1 43798U 18099AS 19269.65092804 -.00000283 00000-0 -20165-4 0 9992 2 43798 97.7368 340.6219 0012057 346.1510 13.9378 14.95757995 44362 JO-97 1 43803U 18099AX 19269.67992342 .00000678 00000-0 66614-4 0 9992 2 43803 97.7349 340.3517 0014997 1.4680 358.6582 14.95318762 44361 Suomi 100 1 43804U 18099AY 19269.14418447 .00000605 00000-0 60026-4 0 9995 2 43804 97.7348 339.8200 0015121 3.2642 356.8675 14.95315513 44297 Al Farabi 2 1 43805U 18099AZ 19269.67077182 .00000558 00000-0 55736-4 0 9990 2 43805 97.7350 340.3657 0015066 1.3805 358.7454 14.95384027 44373 PWSat 2 1 43814U 18099BJ 19269.71185206 .00012923 00000-0 99352-3 0 9992 2 43814 97.7716 342.6503 0006634 18.0099 342.1359 15.01834147 43859 CHOMPTT 1 43855U 18104G 19268.75014621 .00000903 00000-0 37100-4 0 9998 2 43855 85.0397 350.9491 0016138 317.6487 42.3528 15.22505802 43095 ISAT 1 43879U 18111D 19269.65339472 -.00000185 00000-0 -11271-4 0 9991 2 43879 97.7099 176.1763 0014587 53.1804 307.0753 14.96040887 38891 UWE-4 1 43880U 18111E 19269.27461397 .00000297 00000-0 31381-4 0 9999 2 43880 97.7104 175.9388 0013511 55.8108 304.4392 14.96278135 38846 Sparrow 1 43881U 18111F 19269.66744821 .00000069 00000-0 11234-4 0 9991 2 43881 97.7108 176.3594 0013613 52.8907 307.3556 14.96326660 38898 Lume 1 1 43908U 18111AJ 19269.70716324 .00001041 00000-0 44975-4 0 9992 2 43908 97.2803 172.1920 0021739 3.2848 356.8529 15.24481310 41680 FO-98 1 43933U 19003B 19269.70871177 .00000451 00000-0 22788-4 0 9991 2 43933 97.2722 323.9976 0019685 93.0839 25.6917 15.21734458 38262 FO-99 1 43937U 19003F 19269.72871527 .00000948 00000-0 41959-4 0 9998 2 43937 97.2676 324.5655 0026156 79.9940 69.2462 15.23742904 38314 Delphini 1 1 44030U 98067PW 19269.07203303 .00011544 00000-0 15645-3 0 9995 2 44030 51.6365 213.2769 0004996 146.3452 213.7858 15.58165332 37038 MYSat 1 1 44045U 18092F 19268.93328926 .00002318 00000-0 77616-4 0 9990 2 44045 051.6435 250.1811 0013179 082.1426 278.1063 15.35277903034483 AstroCast 0.2 1 44083U 19018F 19269.64608977 .00000496 00000-0 25140-4 0 9997 2 44083 97.4589 328.7922 0014583 25.5348 334.6605 15.21455765 27113 AISTechSat 3 1 44103U 19018AB 19269.72049281 .00000546 00000-0 26372-4 0 9990 2 44103 97.4472 328.8990 0014687 41.8213 84.2330 15.22741940 27140 AISat 1 1 44104U 19018AC 19269.69988241 .00000861 00000-0 30254-4 0 9999 2 44104 97.4998 332.2351 0060477 72.9009 287.8843 15.30595151 27308 Raavana-1 1 44329U 98067QE 19269.29638161 .00007809 00000-0 12987-3 0 9999 2 44329 51.6397 218.5440 0008054 92.6586 267.5326 15.53058812 15737 Uguisu 1 44330U 98067QF 19268.84844387 .00007469 00000-0 12476-3 0 9995 2 44330 51.6396 220.8020 0008017 89.9788 270.2121 15.53009986 15642 NepaliSat-1 1 44331U 98067QG 19268.84369800 .00007634 00000-0 12701-3 0 9993 2 44331 051.6397 220.7711 0008053 092.5129 267.6783 15.53085528015650 Prox-1 1 44339U 19036A 19269.27153487 .00000904 00000-0 16616-3 0 9992 2 44339 23.9979 340.0229 0010647 132.4858 227.6592 14.52661627 13527 OBJECT H 1 44346U 19036H 19268.49364551 .00008893 00000-0 13912-3 0 9990 2 44346 28.5269 321.7267 0386128 0.4324 359.6556 14.97401394 13829 OBJECT J 1 44347U 19036J 19269.25528995 .00026217 00000-0 41263-3 0 9990 2 44347 28.5328 315.2952 0371042 10.7018 350.1246 15.00876584 13956 OBJECT K 1 44348U 19036K 19269.19896532 .00007456 00000-0 11427-3 0 9992 2 44348 28.5215 316.6863 0385823 8.3303 352.3538 14.97730419 13937 Armadillo 1 44352U 19036P 19269.24410568 .00010405 00000-0 16376-3 0 9990 2 44352 28.5347 316.1927 0381202 9.0095 351.7105 14.98402974 13887 NO-104 1 44354U 19036R 19269.35351896 .00008103 00000-0 12251-3 0 9992 2 44354 28.5322 315.0978 0383927 10.4475 350.3834 14.98488248 13949 NO-103 1 44355U 19036S 19269.46017575 .00014152 00000-0 21646-3 0 9997 2 44355 28.5324 314.0209 0379317 12.2491 348.7033 14.99587369 13963 Oculus-ASR 1 44356U 19036T 19269.20559595 .00031108 00000-0 44665-3 0 9999 2 44356 28.5281 313.8416 0368185 12.3168 348.6193 15.03442644 13953 CP9 1 44360U 19036X 19269.22981858 .00020610 00000-0 28290-3 0 9999 2 44360 28.5196 313.9199 0380160 12.4618 348.5128 15.01850270 13829 Move-IIb 1 44398U 19038N 19269.64088924 .00001308 00000-0 80101-4 0 9993 2 44398 97.4985 229.9803 0024621 323.1011 36.8524 15.11708657 12564 SONATE 1 44400U 19038Q 19268.91145569 .00000515 00000-0 33927-4 0 9998 2 44400 097.4998 229.2728 0024419 323.6082 036.3487 15.11682443012454 BeeSat 9 1 44412U 19038AC 19269.36728422 .00000934 00000-0 58183-4 0 9992 2 44412 97.4995 229.7352 0022183 328.4686 31.5213 15.11842704 12217 JAISAT-1 1 44419U 19038F 19269.60480330 .00000735 00000-0 46005-4 0 9998 2 44419 97.4997 230.0323 0021017 327.6358 32.3582 15.12334385 12569 LightSail-2 1 44420U 19036AC 19269.26820190 .00004205 00000-0 94681-3 0 9990 2 44420 24.0035 340.0427 0019175 92.0844 268.1899 14.53054527 11663 Taurus 1 1 44530U 19059C 19269.72839177 -.00000703 00000-0 -18734-3 0 9999 2 44530 98.5873 343.1373 0013920 228.1439 131.8561 14.45236024 2105 /EX
